Waukegan, IL

11:31 PM CDT on August 24, 2016 (GMT -0500)
Waukegan Regional

Weather History for KUGN - June, 2013

Change the Weather History Date:

Saturday, June 1, 2013

  Actual Average Record
Temperature  
Mean Temperature 70 °F -  
Max Temperature 77 °F 71 °F 87 °F (2000)
Min Temperature 62 °F 50 °F 35 °F (2003)
Degree Days  
Heating Degree Days 0 6  
Month to date heating degree days 0 6  
Since 1 June heating degree days 0 6  
Since 1 July heating degree days 6588 6757  
Cooling Degree Days 5 1  
Month to date cooling degree days 5 1  
Year to date cooling degree days 52 26  
Since 1 June cooling degree days 5 1  
Growing Degree Days 18 (Base 50)    
Moisture  
Dew Point 62 °F    
Average Humidity 80    
Maximum Humidity 100    
Minimum Humidity 60    
Precipitation  
Precipitation 0.16 in 0.16 in 1.09 in (2000)
Month to date precipitation 0.16 0.16  
Year to date precipitation 14.02 13.02  
Sea Level Pressure  
Sea Level Pressure 29.67 in    
Wind  
Wind Speed 12 mph (SSW)    
Max Wind Speed 23 mph    
Max Gust Speed 30 mph    
Visibility 9 miles    
Events Rain    
T = Trace of Precipitation, MM = Missing Value Source: NWS Daily Summary

Daily Weather History Graph

Daily Weather History Graph

Search for Another Location

Airport or City:

Trip Planner

Search our weather history database for the weather conditions in past years. The results will help you decide how hot, cold, wet, or windy it might be!

Date:

Astronomy

Jun. 01, 2013 Rise Set
Actual Time 5:16 AM CDT 8:22 PM CDT
Civil Twilight 4:42 AM CDT 8:56 PM CDT
Nautical Twilight 3:59 AM CDT 9:39 PM CDT
Astronomical Twilight 3:07 AM CDT 10:31 PM CDT
Moon 1:20 AM CDT (6/1) 1:44 PM CDT (6/1)
Length of Visible Light 16h 13m
Length of Day
15h 05m
Last Quarter, 40% of the Moon is Illuminated
Jun 1
Last Quarter
Jun 8
New
Jun 16
First Quarter
Jun 23
Full
Jun 29
Last Quarter

Hourly Weather History & Observations

Time (CDT) Temp. Dew Point Humidity Pressure Visibility Wind Dir Wind Speed Gust Speed Precip Events Conditions
12:52 AM 63.0 °F 61.0 °F 93% 29.67 in 7.0 mi SE 6.9 mph - N/A   Mostly Cloudy
1:07 AM 62.6 °F 60.8 °F 94% 29.69 in 7.0 mi SE 4.6 mph - N/A   Partly Cloudy
1:52 AM 63.0 °F 62.1 °F 97% 29.66 in 8.0 mi SSE 5.8 mph - N/A   Clear
2:52 AM 70.0 °F 64.0 °F 81% 29.65 in 10.0 mi SSW 12.7 mph - N/A   Clear
3:52 AM 68.0 °F 61.0 °F 78% 29.65 in 10.0 mi SSW 15.0 mph - N/A   Clear
4:52 AM 66.9 °F 61.0 °F 81% 29.65 in 10.0 mi SSW 13.8 mph 24.2 mph N/A   Overcast
5:48 AM 66.2 °F 62.6 °F 88% 29.69 in 10.0 mi SSW 10.4 mph - N/A   Mostly Cloudy
5:52 AM 66.0 °F 62.1 °F 87% 29.67 in 10.0 mi South 11.5 mph - N/A   Mostly Cloudy
5:59 AM 66.2 °F 62.6 °F 88% 29.70 in 10.0 mi SSW 11.5 mph - N/A   Scattered Clouds
6:52 AM 66.0 °F 62.1 °F 87% 29.67 in 10.0 mi SSW 10.4 mph - N/A   Partly Cloudy
7:52 AM 69.1 °F 63.0 °F 81% 29.68 in 10.0 mi SSW 12.7 mph - N/A   Clear
8:26 AM 69.8 °F 62.6 °F 78% 29.72 in 10.0 mi SSW 15.0 mph - N/A   Mostly Cloudy
8:52 AM 69.1 °F 63.0 °F 81% 29.70 in 10.0 mi SSW 12.7 mph - N/A   Overcast
9:52 AM 72.0 °F 62.1 °F 71% 29.70 in 10.0 mi SSW 17.3 mph - N/A   Scattered Clouds
10:52 AM 72.0 °F 61.0 °F 68% 29.70 in 10.0 mi SW 19.6 mph 26.5 mph N/A   Scattered Clouds
11:52 AM 75.9 °F 62.1 °F 62% 29.69 in 10.0 mi SSW 21.9 mph 26.5 mph N/A   Scattered Clouds
12:52 PM 75.9 °F 61.0 °F 60% 29.68 in 10.0 mi SSW 17.3 mph 27.6 mph N/A   Partly Cloudy
1:52 PM 72.0 °F 62.1 °F 71% 29.68 in 10.0 mi SSW 16.1 mph - N/A   Mostly Cloudy
2:49 PM 73.4 °F 64.4 °F 73% 29.69 in 10.0 mi South 15.0 mph 19.6 mph N/A   Mostly Cloudy
2:52 PM 73.9 °F 64.0 °F 71% 29.66 in 10.0 mi South 12.7 mph 19.6 mph N/A   Mostly Cloudy
3:04 PM 73.4 °F 62.6 °F 69% 29.69 in 10.0 mi South 15.0 mph - N/A   Overcast
3:52 PM 73.0 °F 63.0 °F 71% 29.66 in 10.0 mi SSW 13.8 mph - N/A   Mostly Cloudy
4:52 PM 75.9 °F 62.1 °F 62% 29.63 in 10.0 mi SSW 13.8 mph - N/A   Partly Cloudy
5:52 PM 73.0 °F 62.1 °F 68% 29.63 in 10.0 mi South 13.8 mph - 0.00 in   Mostly Cloudy
6:32 PM 69.8 °F 64.4 °F 83% 29.66 in 10.0 mi South 13.8 mph - 0.00 in   Mostly Cloudy
6:42 PM 64.4 °F 57.2 °F 77% 29.69 in 1.5 mi Variable 6.9 mph 27.6 mph 0.08 in Rain Heavy Rain
6:52 PM 62.1 °F 57.0 °F 84% 29.65 in 0.8 mi Calm Calm - 0.15 in Rain Rain
6:56 PM 62.6 °F 57.2 °F 82% 29.67 in 4.0 mi Calm Calm - 0.00 in Rain Light Rain
7:52 PM 62.1 °F 60.1 °F 93% 29.64 in 10.0 mi South 6.9 mph - 0.01 in Rain Light Rain
8:52 PM 63.0 °F 60.1 °F 90% 29.64 in 10.0 mi South 6.9 mph - 0.00 in   Partly Cloudy
9:52 PM 62.1 °F 61.0 °F 96% 29.66 in 9.0 mi SW 6.9 mph - N/A   Mostly Cloudy
10:52 PM 63.0 °F 61.0 °F 93% 29.65 in 10.0 mi SW 4.6 mph - N/A   Scattered Clouds
11:52 PM 63.0 °F 59.0 °F 87% 29.65 in 10.0 mi Variable 4.6 mph - N/A   Clear